Dewpoint
-2 -2 -3 3 2 2 1 -0 0 -2 -3 -5 -4 -4 -2 -2 -1 -1 -2 -3 -2 -1 -1 -2 -3 -4 -4 -4 -5 -5 -5 -7 -8 -8 -9 -10 -12 -13 -17 -21 -25 -30 -32
-3 -6 -2 1 2 1 0 -2 -2 -3 -4 -4 -4 -4 -3 -1 -1 -1 -1 -2 -2 -0 2 -0 -2 -2 -3 -3 -4 -4 -4 -5 -6 -7 -8 -8 -10 -13 -15 -20 -25 -26 -28
-3 -7 -7 -3 -3 -1 -3 -4 -4 -4 -4 -4 -4 -4 -3 -2 -1 -1 -0 -0 -1 -1 0 0 -1 -1 -1 -2 -3 -3 -4 -4 -5 -6 -6 -7 -9 -11 -13 -16 -20 -24 -25
-6 -6 -5 -1 -0 -3 -2 -1 -3 -3 -3 -3 -3 -3 -3 -2 -2 -1 -1 -0 -0 -0 -1 0 0 -1 -1 -1 -2 -2 -3 -4 -4 -5 -6 -6 -8 -10 -10 -12 -15 -19 -22
-5 2 2 3 3 4 5 3 3 3 0 -0 -2 -2 -3 -3 -2 -2 -2 -1 -0 0 -0 -1 0 0 -1 -1 -1 -2 -2 -3 -3 -4 -5 -5 -5 -6 -6 -7 -8 -12 -14
4 4 4 4 5 5 5 5 5 5 5 5 4 3 1 0 1 2 0 -2 -1 0 0 0 -0 0 0 -1 -2 -2 -2 -1 -1 -2 -3 -4 -4 -4 -4 -5 -5 -6 -8
5 5 4 5 5 4 5 5 5 5 5 5 5 5 4 3 3 3 3 2 -0 -1 -0 1 1 0 1 -0 -1 -2 -2 -0 1 -1 -1 -1 -2 -3 -3 -4 -4 -4 -5
5 4 5 4 2 3 5 6 6 6 6 6 6 6 6 6 5 5 5 4 3 1 -1 -0 2 1 1 0 -0 -1 -2 -2 -1 2 3 2 1 0 -1 -2 -3 -3 -4
4 4 3 2 2 4 5 6 6 6 6 7 7 7 6 6 6 6 6 5 6 4 2 0 -1 -0 1 2 2 1 -1 -1 -2 -2 1 3 3 3 2 1 -0 -2 -3
5 4 3 3 4 3 4 4 4 5 6 7 7 7 8 7 7 7 7 7 7 7 5 3 4 2 -0 1 4 3 -0 1 -1 -2 -0 -2 1 3 2 2 1 1 -0
5 4 4 4 5 4 4 3 5 6 6 7 7 6 7 8 8 8 7 7 7 7 6 6 5 5 0 2 4 3 2 1 -1 -0 -0 -1 -0 -1 1 2 1 1 1
5 4 4 4 4 4 3 4 3 4 5 4 4 7 8 8 8 8 7 8 8 6 6 6 5 3 0 4 3 3 2 2 1 0 0 1 1 -1 -3 -1 1 2 1
4 4 6 5 4 3 3 3 2 3 4 5 5 6 7 8 8 8 8 8 7 6 6 6 4 4 4 2 2 3 2 2 1 0 -0 -1 -2 -3 -4 -4 -3 0 1
4 5 6 5 4 4 3 2 2 1 1 3 3 5 7 8 8 9 8 8 7 7 6 5 3 4 4 4 3 2 0 -1 -2 -2 -2 -3 -3 -4 -5 -5 -5 -5 -4
4 4 3 2 3 2 2 3 3 2 6 7 7 7 7 6 8 8 8 7 7 6 5 4 4 4 3 2 2 1 0 -1 -2 -5 -6 -8 -9 -7 -7 -6 -5 -5 -5
4 3 3 3 4 4 3 2 2 2 7 7 7 6 6 6 8 8 7 7 6 6 5 4 4 4 3 2 2 1 0 -2 -5 -7 -10 -13 -14 -15 -14 -12 -10 -7 -6
4 3 3 3 4 4 2 2 3 7 7 8 6 5 7 8 8 8 7 6 6 5 5 4 4 3 2 2 1 0 -2 -8 -10 -16 -23 -30 -34 -36 -37 -37 -37 -34 -27
2 2 2 2 2 2 2 2 6 7 8 8 7 7 8 8 8 6 6 6 6 5 5 4 3 2 2 1 0 -4 -9 -14 -25 -34 -34 -34 -36 -37 -37 -38 -38 -35 -34
1 1 2 1 2 4 6 7 8 7 8 7 7 8 7 8 8 7 6 6 5 4 4 3 2 2 1 -2 -7 -12 -21 -34 -35 -33 -35 -34 -35 -35 -36 -36 -33 -28 -26
1 1 2 3 4 5 6 6 8 6 8 9 8 8 8 8 8 7 6 5 5 4 3 2 1 -0 -4 -10 -17 -29 -36 -34 -33 -34 -33 -33 -33 -35 -36 -33 -26 -22 -22
1 1 2 2 4 6 7 8 8 6 7 7 6 7 8 7 6 6 5 5 4 3 2 1 0 -5 -11 -19 -35 -36 -35 -35 -35 -33 -32 -31 -32 -34 -35 -29 -23 -19 -23
2 3 4 4 7 6 6 7 9 7 8 7 7 8 7 6 6 5 5 4 2 2 0 -1 -6 -14 -24 -36 -36 -36 -36 -35 -28 -29 -32 -32 -31 -32 -32 -24 -17 -17 -16
4 5 6 7 8 9 9 9 9 8 8 8 7 7 7 6 4 4 3 2 1 1 -1 -9 -17 -30 -36 -36 -36 -36 -36 -35 -34 -32 -31 -25 -29 -27 -13 -12 -16 -15 -15
7 8 8 9 8 9 9 9 8 8 8 7 6 5 5 4 3 3 1 1 -0 -5 -13 -21 -35 -36 -36 -36 -36 -37 -37 -36 -35 -33 -29 -15 -24 -12 -9 -8 -12 -14 -11
9 9 9 9 9 8 8 8 8 7 6 6 4 4 3 2 1 1 -0 -2 -9 -16 -28 -36 -37 -36 -36 -36 -37 -37 -37 -35 -32 -30 -35 -14 -12 -9 -9 -8 -8 -13 -15
9 8 8 8 8 8 8 8 7 6 5 4 3 2 1 0 -0 -1 -5 -13 -23 -33 -35 -35 -34 -34 -36 -37 -37 -37 -37 -36 -31 -23 -13 -15 -13 -10 -8 -9 -8 -8 -11
Wind_Speed
35 31 30 31 29 27 26 24 22 19 18 16 15 14 15 15 14 14 14 12 10 8 9 8 8 9 9 9 10 10 9 8 9 10 10 11 12 11 12 12 11 9 8
34 33 34 30 26 23 22 17 19 20 17 14 14 13 12 11 11 10 10 11 9 8 6 6 6 7 7 6 7 7 8 8 8 7 8 10 13 13 12 10 11 11 11
32 33 33 28 24 20 16 17 20 19 17 16 13 12 11 9 8 7 7 7 6 5 4 3 4 3 5 5 5 7 8 8 7 7 8 9 10 11 12 13 14 13 12
38 36 30 25 21 19 17 19 21 17 16 14 13 12 11 10 8 7 6 5 5 6 4 2 1 2 2 4 5 7 8 8 8 8 9 9 9 9 12 14 14 13 13
38 32 30 28 26 23 21 20 18 14 14 12 11 10 10 10 9 8 8 7 6 6 6 6 6 5 5 4 5 7 7 8 9 10 10 9 9 10 13 15 15 15 14
31 31 29 26 24 21 21 20 16 14 12 11 11 10 10 10 10 10 9 11 10 11 11 10 10 10 8 7 6 7 8 9 11 12 13 13 12 13 14 16 17 16 16
25 30 29 23 18 19 18 17 17 16 14 13 11 12 12 13 15 15 15 15 15 15 15 13 13 14 12 10 9 10 9 9 11 15 16 19 20 18 17 18 20 20 20
31 34 24 22 22 21 22 19 17 15 14 14 15 13 10 15 20 20 21 21 20 20 20 18 18 19 15 14 12 12 13 13 15 15 17 20 22 26 24 22 22 22 22
34 31 28 27 24 23 20 19 16 15 16 16 17 14 7 10 8 11 12 15 20 23 26 23 23 22 20 17 17 15 17 17 19 18 18 21 23 24 30 29 27 25 23
36 36 32 27 24 27 21 20 16 16 18 21 20 20 20 21 16 12 15 12 16 20 20 27 27 29 24 22 22 20 20 21 22 24 25 26 24 25 27 33 32 27 25
40 38 35 30 29 28 26 21 20 18 17 20 22 24 24 25 26 27 24 19 21 19 16 24 24 23 24 23 24 23 23 22 26 27 31 30 31 28 28 31 34 32 30
38 39 38 37 33 33 28 24 23 20 20 19 24 28 30 27 25 26 27 29 25 21 19 17 16 18 21 24 21 19 21 22 24 26 28 31 30 29 30 33 34 36 33
44 41 38 38 35 30 26 24 24 21 24 24 28 30 30 31 34 33 33 27 25 20 17 13 12 16 19 17 18 19 18 21 25 25 26 27 28 30 31 33 36 36 37
44 41 37 34 32 32 33 35 33 30 30 29 29 30 30 29 25 27 34 30 21 18 16 15 14 15 16 19 18 19 20 20 22 25 28 29 28 28 27 28 30 34 38
48 45 44 41 40 40 38 37 37 36 32 28 28 31 34 30 29 30 28 24 23 18 15 17 16 16 16 17 20 21 23 24 24 24 25 26 26 28 30 33 35 37 40
52 48 47 46 44 44 44 43 41 41 36 34 28 22 24 30 29 25 21 21 23 22 20 18 18 20 20 21 23 24 24 23 24 25 25 27 29 30 32 35 37 40 42
49 49 49 50 46 41 40 39 41 41 40 33 28 33 36 29 26 24 21 23 25 22 22 23 21 22 20 22 27 25 23 24 26 25 27 30 32 33 35 37 40 42 45
40 41 39 35 34 35 36 46 44 47 48 37 31 34 27 25 28 26 24 24 22 25 25 25 22 20 20 23 26 23 23 25 26 27 28 30 31 33 35 37 38 40 42
40 40 36 36 34 38 39 38 33 33 36 29 32 27 26 32 32 28 24 24 25 24 25 23 19 20 22 20 21 22 23 24 23 25 27 28 30 31 33 35 36 37 38
41 39 39 38 39 42 39 34 30 25 24 25 26 27 29 34 33 30 26 24 25 25 22 20 19 19 19 21 22 23 23 24 25 25 26 26 29 31 31 32 34 34 36
46 43 39 39 41 44 38 36 35 28 29 35 35 33 30 33 30 28 24 23 26 24 23 22 19 19 20 21 20 21 24 25 25 24 27 27 31 33 31 31 31 32 32
42 40 40 38 32 43 46 37 30 33 33 34 33 31 32 29 28 27 25 24 23 22 19 19 19 20 20 20 20 21 23 24 21 24 28 32 32 33 31 29 29 31 26
40 42 40 39 35 35 37 33 34 32 34 34 33 30 32 31 28 24 24 23 20 20 18 18 19 19 18 19 20 21 22 24 24 27 29 32 31 31 25 27 29 30 22
39 40 37 34 31 33 37 36 36 36 34 29 29 29 27 26 24 22 21 20 18 16 18 17 16 17 17 18 20 22 23 25 27 26 26 28 29 26 24 25 29 24 20
28 29 31 31 31 31 34 35 34 32 28 28 28 26 24 22 20 20 18 15 15 16 16 16 17 17 18 19 20 21 23 25 27 25 28 21 21 24 27 28 20 23 22
25 26 27 29 31 32 31 30 30 29 30 29 26 23 22 20 18 16 13 14 14 15 15 15 15 15 16 17 18 21 23 24 23 25 11 20 23 21 25 22 19 22 19
Wind_Direction
160 163 175 173 167 163 165 159 158 161 154 142 142 139 136 133 131 123 125 128 122 103 104 109 88 77 72 68 60 56 54 47 42 33 25 14 17 20 18 13 12 16 18
161 172 174 173 169 168 163 162 175 168 153 155 154 149 146 143 141 133 132 127 127 114 96 83 81 73 66 62 51 45 37 29 17 17 19 4 1 6 7 2 356 356 359
161 171 171 166 166 165 162 176 175 159 170 165 164 161 162 165 161 153 141 140 140 141 116 69 47 49 47 48 27 14 13 13 4 353 356 357 351 351 355 354 352 348 345
170 164 157 158 163 174 180 186 170 172 175 173 173 172 176 181 186 187 184 182 180 185 189 212 277 302 319 354 1 0 356 353 344 334 338 347 346 352 351 347 346 341 336
164 162 167 163 172 178 186 185 172 180 173 174 183 191 193 198 204 216 221 220 223 226 227 233 248 265 272 290 311 328 327 330 331 325 323 332 340 338 341 342 343 337 335
173 172 166 173 179 183 190 187 184 180 180 184 192 200 207 214 225 234 237 238 239 243 240 242 245 252 260 264 271 290 298 302 309 317 315 317 316 318 325 331 332 332 332
174 182 177 180 185 204 203 193 195 194 193 198 206 216 225 233 238 241 243 248 250 252 250 252 255 255 258 259 263 269 280 278 278 302 299 310 312 308 310 317 322 322 323
191 181 181 186 196 214 212 209 216 210 209 213 223 236 245 253 251 253 257 256 256 258 257 255 259 256 253 255 265 270 272 281 287 261 258 268 292 299 302 305 305 308 313
196 182 193 195 203 223 221 221 223 233 234 238 237 235 223 236 261 261 261 269 260 264 264 261 257 255 256 258 260 268 266 271 272 272 270 269 271 270 276 291 294 291 295
186 196 193 205 212 221 232 229 231 240 242 245 251 255 254 258 262 273 276 263 273 272 269 266 261 251 254 256 260 258 263 269 273 275 280 272 269 271 278 275 287 282 281
201 207 196 214 214 225 234 240 240 242 248 252 258 269 268 267 266 265 267 269 276 289 272 288 267 260 251 259 265 262 261 267 265 269 272 272 273 272 272 276 277 275 279
198 204 214 215 223 230 238 243 255 253 260 265 276 265 263 264 267 263 264 271 275 277 286 273 257 245 250 267 261 258 261 266 269 271 274 277 278 276 273 269 270 275 275
208 209 208 213 221 230 240 250 261 266 264 265 267 273 274 272 270 272 267 266 267 273 273 263 248 250 258 260 262 271 274 276 276 275 276 278 278 276 274 272 269 267 272
212 216 220 225 232 240 249 253 260 271 272 270 269 272 274 275 281 271 262 260 255 257 246 237 239 244 257 258 261 271 276 273 272 277 280 281 281 275 271 270 270 269 270
220 224 229 236 244 248 250 253 260 269 274 270 275 270 264 269 288 274 261 254 252 236 231 236 255 259 258 256 269 276 277 276 282 286 288 289 287 281 279 277 275 274 273
226 230 233 238 247 252 252 257 263 269 271 271 274 265 250 267 279 269 253 249 253 246 235 248 244 246 251 269 278 283 282 282 283 286 290 291 290 289 286 283 281 278 276
228 233 239 245 250 248 249 255 263 270 271 267 253 253 266 266 257 252 252 256 250 251 243 243 245 251 253 272 283 288 284 285 288 293 296 298 299 298 295 293 289 285 281
233 236 238 238 242 245 250 252 256 261 264 255 261 263 266 250 245 247 246 247 251 249 248 245 249 253 262 272 280 281 283 288 295 301 302 303 303 302 302 299 296 293 290
231 235 235 237 241 247 253 261 269 280 253 242 255 264 269 249 241 243 236 243 245 244 248 244 252 265 274 276 276 281 285 287 295 300 304 306 306 307 306 302 298 296 295
237 239 241 242 245 253 255 253 264 260 257 255 259 266 264 247 246 239 237 241 239 248 246 250 260 271 276 278 283 287 292 298 306 310 309 313 312 311 312 309 303 301 299
239 243 246 251 249 251 251 258 268 255 266 269 265 261 251 241 232 231 238 237 240 244 247 253 268 270 276 282 285 293 301 307 310 311 312 315 315 315 315 310 308 311 306
245 245 245 249 247 246 257 261 255 254 262 259 254 246 238 229 232 230 236 239 237 241 249 265 263 268 276 282 289 299 306 310 318 316 312 317 319 319 316 312 312 314 305
249 252 253 254 257 260 253 255 260 256 263 255 247 233 229 225 221 226 235 237 236 250 261 261 264 269 275 283 293 302 304 304 307 311 315 312 317 314 312 308 312 317 297
251 253 255 260 259 253 254 250 258 262 250 240 229 224 223 219 221 230 231 233 246 255 252 261 266 273 281 288 295 300 302 306 306 312 315 304 315 309 308 305 310 316 302
254 256 260 258 252 251 252 260 257 244 224 218 215 213 213 218 223 223 232 246 254 259 267 272 275 280 286 293 295 301 306 304 306 309 311 296 310 307 305 306 305 320 306
254 252 246 249 253 253 248 245 238 223 214 203 204 207 214 217 222 237 253 255 257 263 268 273 277 282 285 286 293 299 297 298 302 308 299 302 300 310 310 308 309 312 313
Height
1537 1544 1551 1557 1560 1564 1568 1570 1574 1579 1581 1581 1584 1586 1587 1588 1591 1590 1591 1592 1592 1593 1594 1594 1595 1595 1596 1596 1596 1595 1596 1596 1595 1594 1594 1594 1592 1593 1592 1592 1592 1591 1591
1538 1547 1553 1557 1561 1566 1569 1572 1576 1579 1580 1582 1584 1585 1587 1589 1591 1591 1592 1593 1594 1594 1594 1594 1594 1595 1596 1596 1597 1596 1597 1597 1597 1596 1595 1594 1593 1593 1593 1592 1591 1591 1590
1540 1548 1554 1557 1562 1566 1569 1574 1577 1577 1581 1582 1584 1585 1587 1590 1591 1591 1592 1593 1593 1594 1594 1593 1594 1594 1595 1595 1596 1597 1596 1595 1596 1596 1595 1595 1594 1594 1593 1591 1590 1590 1589
1542 1549 1555 1560 1564 1567 1570 1575 1576 1578 1580 1582 1584 1585 1587 1590 1591 1591 1591 1593 1594 1593 1594 1594 1593 1595 1594 1594 1595 1595 1595 1594 1595 1595 1595 1594 1594 1594 1592 1591 1589 1589 1588
1544 1548 1554 1558 1564 1568 1572 1576 1576 1579 1579 1581 1583 1586 1586 1588 1589 1590 1590 1591 1592 1592 1593 1593 1595 1594 1594 1594 1594 1594 1594 1592 1593 1593 1593 1593 1593 1592 1592 1590 1588 1588 1587
1545 1549 1553 1559 1564 1569 1572 1573 1576 1577 1578 1580 1582 1584 1585 1587 1588 1587 1588 1590 1590 1592 1591 1592 1592 1594 1593 1592 1592 1591 1592 1591 1591 1591 1591 1591 1591 1591 1590 1588 1587 1586 1585
1544 1548 1552 1559 1564 1568 1571 1572 1574 1576 1577 1579 1580 1581 1582 1584 1584 1585 1585 1586 1587 1590 1589 1589 1589 1591 1590 1590 1589 1590 1590 1590 1590 1589 1588 1587 1587 1587 1587 1585 1584 1583 1582
1545 1546 1553 1559 1563 1565 1567 1570 1571 1573 1574 1576 1578 1580 1580 1580 1579 1580 1582 1581 1582 1584 1584 1584 1586 1589 1588 1587 1587 1587 1588 1588 1588 1587 1586 1584 1583 1582 1582 1582 1580 1578 1576
1542 1548 1553 1557 1560 1562 1565 1567 1568 1570 1573 1574 1575 1576 1576 1574 1574 1574 1575 1577 1577 1579 1580 1579 1581 1584 1584 1583 1582 1583 1584 1584 1584 1584 1584 1584 1582 1580 1576 1575 1574 1573 1571
1539 1545 1548 1553 1557 1559 1562 1564 1565 1566 1568 1570 1572 1571 1571 1572 1573 1572 1570 1571 1573 1572 1573 1575 1574 1575 1578 1577 1577 1577 1578 1579 1579 1579 1578 1578 1578 1577 1575 1571 1569 1567 1565
1536 1540 1545 1549 1553 1556 1559 1560 1560 1561 1564 1565 1567 1566 1566 1567 1567 1567 1565 1566 1566 1566 1566 1569 1569 1569 1571 1571 1571 1571 1571 1572 1573 1572 1571 1570 1570 1570 1570 1567 1564 1561 1559
1531 1536 1540 1545 1548 1551 1554 1555 1556 1556 1558 1559 1560 1561 1561 1561 1560 1560 1560 1559 1560 1560 1561 1562 1561 1563 1565 1566 1565 1565 1565 1565 1565 1564 1563 1563 1562 1561 1560 1560 1559 1556 1554
1526 1530 1534 1538 1541 1544 1547 1548 1550 1550 1552 1552 1555 1554 1553 1553 1553 1553 1552 1551 1554 1554 1555 1557 1557 1558 1560 1560 1560 1559 1559 1559 1558 1557 1556 1555 1554 1553 1552 1551 1549 1549 1547
1520 1526 1529 1532 1536 1539 1540 1542 1543 1543 1544 1543 1544 1544 1544 1546 1545 1545 1544 1546 1547 1549 1549 1552 1552 1552 1554 1554 1553 1553 1553 1551 1550 1550 1549 1548 1547 1545 1543 1541 1540 1538 1536
1515 1519 1522 1525 1528 1531 1532 1534 1535 1537 1537 1536 1535 1535 1536 1537 1538 1537 1537 1539 1541 1543 1544 1545 1546 1547 1548 1548 1547 1546 1545 1546 1544 1543 1543 1541 1539 1537 1534 1532 1530 1528 1526
1506 1509 1512 1515 1518 1521 1524 1527 1528 1529 1528 1528 1526 1525 1526 1528 1531 1531 1531 1533 1535 1537 1538 1540 1541 1541 1540 1541 1541 1540 1538 1539 1538 1536 1534 1533 1530 1527 1524 1522 1519 1516 1512
1495 1499 1502 1506 1510 1513 1516 1518 1519 1519 1518 1520 1520 1519 1521 1521 1523 1524 1526 1528 1528 1530 1530 1531 1534 1535 1536 1534 1534 1532 1531 1531 1530 1529 1526 1524 1521 1517 1514 1510 1507 1503 1500
1487 1490 1495 1498 1502 1505 1507 1508 1509 1509 1508 1508 1510 1511 1510 1512 1515 1517 1518 1519 1522 1522 1523 1524 1526 1527 1529 1525 1527 1526 1525 1523 1522 1521 1518 1514 1511 1506 1503 1500 1495 1491 1487
1477 1482 1487 1490 1493 1496 1499 1500 1500 1497 1492 1496 1502 1503 1503 1504 1505 1508 1511 1512 1513 1514 1515 1517 1518 1519 1520 1517 1518 1518 1518 1517 1516 1513 1510 1506 1503 1498 1494 1490 1486 1481 1476
1471 1475 1479 1483 1485 1487 1489 1491 1492 1492 1492 1493 1494 1495 1495 1497 1499 1500 1502 1503 1506 1507 1509 1511 1510 1512 1513 1510 1510 1510 1509 1507 1506 1504 1500 1497 1494 1490 1485 1481 1477 1473 1467
1463 1467 1472 1473 1476 1476 1479 1482 1484 1484 1485 1486 1485 1485 1486 1488 1490 1492 1496 1496 1498 1500 1502 1504 1503 1505 1505 1504 1502 1501 1499 1497 1496 1495 1492 1490 1485 1481 1477 1472 1469 1464 1459
1452 1457 1459 1462 1464 1467 1469 1473 1474 1475 1476 1475 1475 1476 1477 1480 1484 1487 1489 1489 1493 1493 1496 1498 1497 1498 1498 1496 1494 1493 1491 1489 1486 1485 1482 1479 1476 1472 1469 1465 1462 1458 1452
1442 1444 1447 1451 1453 1456 1459 1462 1464 1464 1465 1466 1467 1468 1470 1473 1476 1479 1483 1483 1487 1488 1490 1492 1492 1491 1491 1488 1488 1486 1484 1481 1480 1479 1474 1468 1469 1465 1461 1458 1455 1450 1446
1433 1435 1439 1442 1445 1447 1450 1453 1454 1456 1456 1457 1460 1461 1464 1466 1471 1473 1477 1479 1481 1482 1484 1486 1486 1484 1484 1483 1480 1479 1477 1475 1474 1473 1470 1462 1463 1458 1455 1452 1447 1444 1439
1427 1429 1432 1435 1437 1440 1442 1443 1445 1446 1448 1451 1454 1456 1459 1461 1465 1469 1472 1475 1476 1477 1479 1479 1479 1478 1477 1476 1474 1473 1471 1469 1466 1466 1466 1459 1456 1452 1450 1444 1441 1437 1433
1420 1423 1425 1427 1429 1431 1432 1434 1437 1439 1442 1443 1448 1451 1456 1458 1462 1465 1468 1471 1472 1472 1473 1473 1473 1472 1471 1470 1468 1466 1465 1463 1461 1458 1459 1456 1452 1451 1441 1440 1436 1433 1429